Time,TemperatureF,DewpointF,PressureIn,WindDirection,WindDirectionDegrees,WindSpeedMPH,WindSpeedGustMPH,Humidity,HourlyPrecipIn,Conditions,Clouds,dailyrainin,SoftwareType,DateUTC
2013-05-10 00:03:00,57.0,-99.9,-100.00,NW,324,0.0,5.0,-999,-99.99,,,-99.99,,2013-05-10 05:03:00,
2013-05-10 00:12:00,57.0,-99.9,-100.00,WNW,289,0.0,7.0,-999,-99.99,,,-99.99,,2013-05-10 05:12:00,
2013-05-10 00:22:00,57.0,-99.9,-100.00,WNW,289,0.0,7.0,-999,-99.99,,,-99.99,,2013-05-10 05:22:00,
2013-05-10 00:32:00,57.0,-99.9,-100.00,WNW,282,0.0,0.0,-999,-99.99,,,-99.99,,2013-05-10 05:32:00,
2013-05-10 00:42:00,58.0,-99.9,-100.00,WNW,282,2.0,11.0,-999,-99.99,,,-99.99,,2013-05-10 05:42:00,
2013-05-10 00:52:00,58.0,-99.9,-100.00,WNW,282,2.0,11.0,-999,-99.99,,,-99.99,,2013-05-10 05:52:00,
2013-05-10 01:02:00,58.0,-99.9,-100.00,WNW,285,0.0,6.0,-999,-99.99,,,-99.99,,2013-05-10 06:02:00,
2013-05-10 01:12:00,58.0,-99.9,-100.00,NW,312,0.0,10.0,-999,-99.99,,,-99.99,,2013-05-10 06:12:00,
2013-05-10 01:22:00,58.0,-99.9,-100.00,NW,312,0.0,10.0,-999,-99.99,,,-99.99,,2013-05-10 06:22:00,
2013-05-10 01:32:00,58.0,-99.9,-100.00,WSW,258,0.0,7.0,-999,-99.99,,,-99.99,,2013-05-10 06:32:00,
2013-05-10 01:42:00,57.0,-99.9,-100.00,WSW,247,0.0,8.0,-999,-99.99,,,-99.99,,2013-05-10 06:42:00,
2013-05-10 01:52:00,57.0,-99.9,-100.00,WSW,247,0.0,8.0,-999,-99.99,,,-99.99,,2013-05-10 06:52:00,
2013-05-10 02:02:00,56.0,-99.9,-100.00,West,261,0.0,9.0,-999,-99.99,,,-99.99,,2013-05-10 07:02:00,
2013-05-10 02:12:00,56.0,-99.9,-100.00,West,261,0.0,9.0,-999,-99.99,,,-99.99,,2013-05-10 07:12:00,
2013-05-10 02:22:00,54.0,-99.9,-100.00,WNW,303,0.0,10.0,-999,-99.99,,,-99.99,,2013-05-10 07:22:00,
2013-05-10 02:32:00,53.0,-99.9,-100.00,WNW,292,3.0,9.0,-999,-99.99,,,-99.99,,2013-05-10 07:32:00,
2013-05-10 02:42:00,53.0,-99.9,-100.00,West,270,0.0,8.0,-999,-99.99,,,-99.99,,2013-05-10 07:42:00,
2013-05-10 02:52:00,53.0,-99.9,-100.00,West,270,0.0,8.0,-999,-99.99,,,-99.99,,2013-05-10 07:52:00,
2013-05-10 03:02:00,56.0,-99.9,-100.00,West,278,3.0,4.0,-999,-99.99,,,-99.99,,2013-05-10 08:02:00,
2013-05-10 03:12:00,55.0,-99.9,-100.00,NW,305,0.0,5.0,-999,-99.99,,,-99.99,,2013-05-10 08:12:00,
2013-05-10 03:22:00,55.0,-99.9,-100.00,NW,305,0.0,5.0,-999,-99.99,,,-99.99,,2013-05-10 08:22:00,
2013-05-10 03:33:00,56.0,-99.9,-100.00,West,279,5.0,0.0,-999,-99.99,,,-99.99,,2013-05-10 08:33:00,
2013-05-10 03:42:00,57.0,-99.9,-100.00,West,274,0.0,8.0,-999,-99.99,,,-99.99,,2013-05-10 08:42:00,
2013-05-10 03:52:00,57.0,-99.9,-100.00,West,274,0.0,8.0,-999,-99.99,,,-99.99,,2013-05-10 08:52:00,
2013-05-10 04:02:00,57.0,-99.9,-100.00,West,271,0.0,5.0,-999,-99.99,,,-99.99,,2013-05-10 09:02:00,
2013-05-10 04:11:00,56.0,-99.9,-100.00,WNW,289,0.0,6.0,-999,-99.99,,,-99.99,,2013-05-10 09:11:00,
2013-05-10 04:22:00,56.0,-99.9,-100.00,WNW,289,0.0,6.0,-999,-99.99,,,-99.99,,2013-05-10 09:22:00,
2013-05-10 04:33:00,56.0,-99.9,-100.00,NNW,338,5.0,7.0,-999,-99.99,,,-99.99,,2013-05-10 09:33:00,
2013-05-10 04:43:00,56.0,-99.9,-100.00,SW,236,0.0,0.0,-999,-99.99,,,-99.99,,2013-05-10 09:43:00,
2013-05-10 04:53:00,56.0,-99.9,-100.00,SW,236,0.0,0.0,-999,-99.99,,,-99.99,,2013-05-10 09:53:00,
2013-05-10 05:03:00,56.0,-99.9,-100.00,West,281,0.0,0.0,-999,-99.99,,,-99.99,,2013-05-10 10:03:00,
2013-05-10 05:12:00,56.0,-99.9,-100.00,West,281,0.0,0.0,-999,-99.99,,,-99.99,,2013-05-10 10:12:00,
2013-05-10 05:23:00,56.0,-99.9,-100.00,West,281,0.0,0.0,-999,-99.99,,,-99.99,,2013-05-10 10:23:00,
2013-05-10 05:33:00,56.0,-99.9,-100.00,West,281,0.0,0.0,-999,-99.99,,,-99.99,,2013-05-10 10:33:00,
2013-05-10 05:42:00,56.0,-99.9,-100.00,West,281,0.0,0.0,-999,-99.99,,,-99.99,,2013-05-10 10:42:00,
2013-05-10 05:53:00,56.0,-99.9,-100.00,West,281,0.0,0.0,-999,-99.99,,,-99.99,,2013-05-10 10:53:00,
2013-05-10 06:02:00,56.0,-99.9,-100.00,NW,313,0.0,5.0,-999,-99.99,,,-99.99,,2013-05-10 11:02:00,
2013-05-10 06:12:00,56.0,-99.9,-100.00,West,271,0.0,5.0,-999,-99.99,,,-99.99,,2013-05-10 11:12:00,
2013-05-10 06:22:00,56.0,-99.9,-100.00,West,271,0.0,5.0,-999,-99.99,,,-99.99,,2013-05-10 11:22:00,
2013-05-10 06:32:00,56.0,-99.9,-100.00,NW,315,0.0,9.0,-999,-99.99,,,-99.99,,2013-05-10 11:32:00,
2013-05-10 06:42:00,57.0,-99.9,-100.00,NW,323,3.0,6.0,-999,-99.99,,,-99.99,,2013-05-10 11:42:00,
2013-05-10 06:52:00,57.0,-99.9,-100.00,NW,323,3.0,6.0,-999,-99.99,,,-99.99,,2013-05-10 11:52:00,
2013-05-10 07:02:00,57.0,-99.9,-100.00,West,279,5.0,11.0,-999,-99.99,,,-99.99,,2013-05-10 12:02:00,
2013-05-10 07:12:00,57.0,-99.9,-100.00,NNW,327,6.0,9.0,-999,-99.99,,,-99.99,,2013-05-10 12:12:00,
2013-05-10 07:22:00,57.0,-99.9,-100.00,NNW,327,6.0,9.0,-999,-99.99,,,-99.99,,2013-05-10 12:22:00,
2013-05-10 07:32:00,56.0,-99.9,-100.00,West,272,3.0,8.0,-999,-99.99,,,-99.99,,2013-05-10 12:32:00,
2013-05-10 07:42:00,56.0,-99.9,-100.00,West,272,3.0,8.0,-999,-99.99,,,-99.99,,2013-05-10 12:42:00,
2013-05-10 07:52:00,56.0,-99.9,-100.00,West,281,5.0,5.0,-999,-99.99,,,-99.99,,2013-05-10 12:52:00,
2013-05-10 08:01:00,57.0,-99.9,-100.00,North,0,6.0,6.0,-999,-99.99,,,-99.99,,2013-05-10 13:01:00,
2013-05-10 08:11:00,57.0,-99.9,-100.00,North,0,6.0,6.0,-999,-99.99,,,-99.99,,2013-05-10 13:11:00,
2013-05-10 08:21:00,52.0,-99.9,-100.00,NNE,12,15.0,16.0,-999,-99.99,,,-99.99,,2013-05-10 13:21:00,
2013-05-10 08:32:00,51.0,-99.9,-100.00,North,8,15.0,16.0,-999,-99.99,,,-99.99,,2013-05-10 13:32:00,
2013-05-10 08:42:00,51.0,-99.9,-100.00,NNE,16,9.0,16.0,-999,-99.99,,,-99.99,,2013-05-10 13:42:00,
2013-05-10 08:52:00,51.0,-99.9,-100.00,NNE,16,9.0,16.0,-999,-99.99,,,-99.99,,2013-05-10 13:52:00,
2013-05-10 09:02:00,49.0,-99.9,-100.00,NNE,12,11.0,14.0,-999,-99.99,,,-99.99,,2013-05-10 14:02:00,
2013-05-10 09:11:00,50.0,-99.9,-100.00,NNE,16,10.0,14.0,-999,-99.99,,,-99.99,,2013-05-10 14:11:00,
2013-05-10 09:22:00,50.0,-99.9,-100.00,NNE,16,10.0,14.0,-999,-99.99,,,-99.99,,2013-05-10 14:22:00,
2013-05-10 09:32:00,50.0,-99.9,-100.00,NNW,347,12.0,15.0,-999,-99.99,,,-99.99,,2013-05-10 14:32:00,
2013-05-10 09:42:00,51.0,-99.9,-100.00,North,9,9.0,13.0,-999,-99.99,,,-99.99,,2013-05-10 14:42:00,
2013-05-10 09:52:00,51.0,-99.9,-100.00,North,9,9.0,13.0,-999,-99.99,,,-99.99,,2013-05-10 14:52:00,
2013-05-10 10:02:00,49.0,-99.9,-100.00,NNE,25,9.0,16.0,-999,-99.99,,,-99.99,,2013-05-10 15:02:00,
2013-05-10 10:21:00,-999.0,-99.9,-100.00,NNW,345,15.0,17.0,-999,-99.99,,,-99.99,,2013-05-10 15:21:00,
2013-05-10 10:32:00,50.0,-99.9,-100.00,NNE,16,14.0,19.0,-999,-99.99,,,-99.99,,2013-05-10 15:32:00,
2013-05-10 10:43:00,51.0,-99.9,-100.00,North,9,11.0,17.0,-999,-99.99,,,-99.99,,2013-05-10 15:43:00,
2013-05-10 10:53:00,51.0,-99.9,-100.00,North,9,11.0,17.0,-999,-99.99,,,-99.99,,2013-05-10 15:53:00,
2013-05-10 11:02:00,51.0,-99.9,-100.00,NNE,19,14.0,15.0,-999,-99.99,,,-99.99,,2013-05-10 16:02:00,
2013-05-10 11:12:00,51.0,-99.9,-100.00,NNE,21,11.0,15.0,-999,-99.99,,,-99.99,,2013-05-10 16:12:00,
2013-05-10 11:23:00,51.0,-99.9,-100.00,NNE,21,11.0,15.0,-999,-99.99,,,-99.99,,2013-05-10 16:23:00,
2013-05-10 11:33:00,52.0,-99.9,-100.00,North,5,13.0,17.0,-999,-99.99,,,-99.99,,2013-05-10 16:33:00,
2013-05-10 11:43:00,53.0,-99.9,-100.00,North,357,8.0,17.0,-999,-99.99,,,-99.99,,2013-05-10 16:43:00,
2013-05-10 11:53:00,53.0,-99.9,-100.00,North,357,8.0,17.0,-999,-99.99,,,-99.99,,2013-05-10 16:53:00,
2013-05-10 12:02:00,51.0,-99.9,-100.00,NNW,347,9.0,14.0,-999,-99.99,,,-99.99,,2013-05-10 17:02:00,
2013-05-10 12:12:00,51.0,-99.9,-100.00,North,358,9.0,14.0,-999,-99.99,,,-99.99,,2013-05-10 17:12:00,
2013-05-10 12:22:00,51.0,-99.9,-100.00,North,358,9.0,14.0,-999,-99.99,,,-99.99,,2013-05-10 17:22:00,
2013-05-10 12:32:00,50.0,-99.9,-100.00,NNE,32,9.0,14.0,-999,-99.99,,,-99.99,,2013-05-10 17:32:00,
2013-05-10 12:42:00,53.0,-99.9,-100.00,North,358,14.0,14.0,-999,-99.99,,,-99.99,,2013-05-10 17:42:00,
2013-05-10 12:52:00,53.0,-99.9,-100.00,North,358,14.0,14.0,-999,-99.99,,,-99.99,,2013-05-10 17:52:00,
2013-05-10 13:11:00,-999.0,-99.9,-100.00,North,11,10.0,14.0,-999,-99.99,,,-99.99,,2013-05-10 18:11:00,
2013-05-10 13:22:00,53.0,-99.9,-100.00,North,5,8.0,14.0,-999,-99.99,,,-99.99,,2013-05-10 18:22:00,
2013-05-10 13:35:00,53.0,-99.9,-100.00,NE,43,9.0,15.0,-999,-99.99,,,-99.99,,2013-05-10 18:35:00,
2013-05-10 13:43:00,52.0,-99.9,-100.00,NNE,15,10.0,14.0,-999,-99.99,,,-99.99,,2013-05-10 18:43:00,
2013-05-10 13:54:00,52.0,-99.9,-100.00,NNE,15,10.0,14.0,-999,-99.99,,,-99.99,,2013-05-10 18:54:00,
2013-05-10 14:02:00,51.0,-99.9,-100.00,NNE,21,13.0,15.0,-999,-99.99,,,-99.99,,2013-05-10 19:02:00,
2013-05-10 14:12:00,52.0,-99.9,-100.00,NE,37,11.0,14.0,-999,-99.99,,,-99.99,,2013-05-10 19:12:00,
2013-05-10 14:22:00,52.0,-99.9,-100.00,NE,37,11.0,14.0,-999,-99.99,,,-99.99,,2013-05-10 19:22:00,
2013-05-10 14:32:00,52.0,-99.9,-100.00,North,358,9.0,15.0,-999,-99.99,,,-99.99,,2013-05-10 19:32:00,
2013-05-10 14:42:00,51.0,-99.9,-100.00,NNE,21,8.0,14.0,-999,-99.99,,,-99.99,,2013-05-10 19:42:00,
2013-05-10 14:52:00,51.0,-99.9,-100.00,NNE,21,8.0,14.0,-999,-99.99,,,-99.99,,2013-05-10 19:52:00,
2013-05-10 15:02:00,52.0,-99.9,-100.00,North,358,9.0,14.0,-999,-99.99,,,-99.99,,2013-05-10 20:02:00,
2013-05-10 15:12:00,52.0,-99.9,-100.00,North,358,9.0,14.0,-999,-99.99,,,-99.99,,2013-05-10 20:12:00,
2013-05-10 15:22:00,51.0,-99.9,-100.00,NNE,16,9.0,14.0,-999,-99.99,,,-99.99,,2013-05-10 20:22:00,
2013-05-10 15:32:00,51.0,-99.9,-100.00,NNE,33,13.0,13.0,-999,-99.99,,,-99.99,,2013-05-10 20:32:00,
2013-05-10 15:42:00,51.0,-99.9,-100.00,NNE,33,13.0,13.0,-999,-99.99,,,-99.99,,2013-05-10 20:42:00,
2013-05-10 15:52:00,51.0,-99.9,-100.00,North,4,9.0,14.0,-999,-99.99,,,-99.99,,2013-05-10 20:52:00,
2013-05-10 16:02:00,51.0,-99.9,-100.00,NNW,336,8.0,15.0,-999,-99.99,,,-99.99,,2013-05-10 21:02:00,
2013-05-10 16:11:00,51.0,-99.9,-100.00,NNW,343,7.0,13.0,-999,-99.99,,,-99.99,,2013-05-10 21:11:00,
2013-05-10 16:25:00,51.0,-99.9,-100.00,NNW,343,7.0,13.0,-999,-99.99,,,-99.99,,2013-05-10 21:25:00,
2013-05-10 16:32:00,51.0,-99.9,-100.00,North,8,8.0,14.0,-999,-99.99,,,-99.99,,2013-05-10 21:32:00,
2013-05-10 16:43:00,51.0,-99.9,-100.00,North,1,11.0,13.0,-999,-99.99,,,-99.99,,2013-05-10 21:43:00,
2013-05-10 16:53:00,51.0,-99.9,-100.00,North,1,11.0,13.0,-999,-99.99,,,-99.99,,2013-05-10 21:53:00,
2013-05-10 17:03:00,51.0,-99.9,-100.00,NNW,340,10.0,13.0,-999,-99.99,,,-99.99,,2013-05-10 22:03:00,
2013-05-10 17:13:00,51.0,-99.9,-100.00,North,7,8.0,15.0,-999,-99.99,,,-99.99,,2013-05-10 22:13:00,
2013-05-10 17:22:00,51.0,-99.9,-100.00,North,7,8.0,15.0,-999,-99.99,,,-99.99,,2013-05-10 22:22:00,
2013-05-10 17:32:00,50.0,-99.9,-100.00,North,355,11.0,14.0,-999,-99.99,,,-99.99,,2013-05-10 22:32:00,
2013-05-10 17:42:00,50.0,-99.9,-100.00,North,357,10.0,12.0,-999,-99.99,,,-99.99,,2013-05-10 22:42:00,
2013-05-10 17:53:00,50.0,-99.9,-100.00,North,357,10.0,12.0,-999,-99.99,,,-99.99,,2013-05-10 22:53:00,
2013-05-10 18:02:00,49.0,-99.9,-100.00,North,9,9.0,12.0,-999,-99.99,,,-99.99,,2013-05-10 23:02:00,
2013-05-10 18:12:00,49.0,-99.9,-100.00,North,9,9.0,12.0,-999,-99.99,,,-99.99,,2013-05-10 23:12:00,
2013-05-10 18:22:00,49.0,-99.9,-100.00,North,350,8.0,13.0,-999,-99.99,,,-99.99,,2013-05-10 23:22:00,
2013-05-10 18:33:00,49.0,-99.9,-100.00,NNE,19,8.0,11.0,-999,-99.99,,,-99.99,,2013-05-10 23:33:00,
2013-05-10 18:42:00,49.0,-99.9,-100.00,NNE,16,7.0,10.0,-999,-99.99,,,-99.99,,2013-05-10 23:42:00,
2013-05-10 18:52:00,49.0,-99.9,-100.00,NNE,16,7.0,10.0,-999,-99.99,,,-99.99,,2013-05-10 23:52:00,
2013-05-10 19:02:00,49.0,-99.9,-100.00,NNW,329,7.0,9.0,-999,-99.99,,,-99.99,,2013-05-11 00:02:00,
2013-05-10 19:11:00,49.0,-99.9,-100.00,North,357,6.0,9.0,-999,-99.99,,,-99.99,,2013-05-11 00:11:00,
2013-05-10 19:22:00,49.0,-99.9,-100.00,North,357,6.0,9.0,-999,-99.99,,,-99.99,,2013-05-11 00:22:00,
2013-05-10 19:32:00,49.0,-99.9,-100.00,NNW,347,8.0,9.0,-999,-99.99,,,-99.99,,2013-05-11 00:32:00,
2013-05-10 19:42:00,49.0,-99.9,-100.00,North,358,7.0,11.0,-999,-99.99,,,-99.99,,2013-05-11 00:42:00,
2013-05-10 19:52:00,49.0,-99.9,-100.00,North,358,7.0,11.0,-999,-99.99,,,-99.99,,2013-05-11 00:52:00,
2013-05-10 20:01:00,49.0,-99.9,-100.00,North,350,6.0,10.0,-999,-99.99,,,-99.99,,2013-05-11 01:01:00,
2013-05-10 20:11:00,49.0,-99.9,-100.00,NNW,345,9.0,11.0,-999,-99.99,,,-99.99,,2013-05-11 01:11:00,
2013-05-10 20:22:00,49.0,-99.9,-100.00,NNW,345,9.0,11.0,-999,-99.99,,,-99.99,,2013-05-11 01:22:00,
2013-05-10 20:32:00,49.0,-99.9,-100.00,NNW,347,5.0,9.0,-999,-99.99,,,-99.99,,2013-05-11 01:32:00,
2013-05-10 20:42:00,49.0,-99.9,-100.00,NNW,330,5.0,9.0,-999,-99.99,,,-99.99,,2013-05-11 01:42:00,
2013-05-10 20:52:00,49.0,-99.9,-100.00,NNW,330,5.0,9.0,-999,-99.99,,,-99.99,,2013-05-11 01:52:00,
2013-05-10 21:02:00,49.0,-99.9,-100.00,NNE,25,9.0,10.0,-999,-99.99,,,-99.99,,2013-05-11 02:02:00,
2013-05-10 21:12:00,49.0,-99.9,-100.00,NNE,15,8.0,11.0,-999,-99.99,,,-99.99,,2013-05-11 02:12:00,
2013-05-10 21:22:00,49.0,-99.9,-100.00,NNE,15,8.0,11.0,-999,-99.99,,,-99.99,,2013-05-11 02:22:00,
2013-05-10 21:32:00,49.0,-99.9,-100.00,NNW,343,8.0,10.0,-999,-99.99,,,-99.99,,2013-05-11 02:32:00,
2013-05-10 21:42:00,49.0,-99.9,-100.00,North,0,11.0,13.0,-999,-99.99,,,-99.99,,2013-05-11 02:42:00,
2013-05-10 21:52:00,49.0,-99.9,-100.00,North,0,11.0,13.0,-999,-99.99,,,-99.99,,2013-05-11 02:52:00,
2013-05-10 22:01:00,49.0,-99.9,-100.00,North,358,8.0,12.0,-999,-99.99,,,-99.99,,2013-05-11 03:01:00,
2013-05-10 22:11:00,49.0,-99.9,-100.00,North,7,9.0,12.0,-999,-99.99,,,-99.99,,2013-05-11 03:11:00,
2013-05-10 22:22:00,49.0,-99.9,-100.00,North,7,9.0,12.0,-999,-99.99,,,-99.99,,2013-05-11 03:22:00,
2013-05-10 22:33:00,49.0,-99.9,-100.00,North,358,6.0,10.0,-999,-99.99,,,-99.99,,2013-05-11 03:33:00,
2013-05-10 22:43:00,48.0,-99.9,-100.00,North,2,4.0,8.0,-999,-99.99,,,-99.99,,2013-05-11 03:43:00,
2013-05-10 22:53:00,48.0,-99.9,-100.00,North,2,4.0,8.0,-999,-99.99,,,-99.99,,2013-05-11 03:53:00,
2013-05-10 23:03:00,48.0,-99.9,-100.00,NNE,18,7.0,9.0,-999,-99.99,,,-99.99,,2013-05-11 04:03:00,
2013-05-10 23:12:00,48.0,-99.9,-100.00,NNE,32,7.0,-999.0,-999,-99.99,,,-99.99,,2013-05-11 04:12:00,
2013-05-10 23:23:00,48.0,-99.9,-100.00,NNE,32,7.0,-999.0,-999,-99.99,,,-99.99,,2013-05-11 04:23:00,
2013-05-10 23:33:00,48.0,-99.9,-100.00,NNE,25,9.0,10.0,-999,-99.99,,,-99.99,,2013-05-11 04:33:00,
2013-05-10 23:43:00,48.0,-99.9,-100.00,NNE,33,10.0,11.0,-999,-99.99,,,-99.99,,2013-05-11 04:43:00,
2013-05-10 23:52:00,48.0,-99.9,-100.00,NNE,33,10.0,11.0,-999,-99.99,,,-99.99,,2013-05-11 04:52:00,